Location: Edinburgh
(55.9500°N, 3.1600°W)
Time: 13:07:37
(UTC+00:00)

N. Korean satellite - Pass Details

Date: 15 October 2017
Orbit: 461 x 513 km, 97.2° (Epoch: 10 December)

Event Time Altitude Azimuth Distance (km) Brightness Sun altitude
Rises 07:05:33 0° 27° (NNE) 2,505 10.5 -6.1°
Reaches altitude 10° 07:08:17 10° 51° (NE) 1,623 9.9 -5.7°
Maximum altitude 07:10:25 15° 89° (E) 1,328 10.3 -5.5°
Drops below altitude 10° 07:12:32 10° 127° (SE) 1,618 10.3 -5.2°
Sets 07:15:15 0° 151° (SSE) 2,493 10.8 -4.8°
